Saint Johnsbury, VT

1:50 AM EST on February 11, 2016 (GMT -0500)
St. Johnsbury

Weather History for K1V4 - August, 2012

Change the Weather History Date:

Wednesday, August 8, 2012

  Actual Average Record
Temperature  
Mean Temperature 70 °F 69 °F  
Max Temperature 85 °F 80 °F 100 °F (1909)
Min Temperature 54 °F 58 °F 38 °F (1903)
Degree Days  
Heating Degree Days 0 1  
Month to date heating degree days 7  
Since 1 June heating degree days 94  
Since 1 July heating degree days 22  
Cooling Degree Days 5 5  
Month to date cooling degree days 50 40  
Year to date cooling degree days 286 317  
Since 1 June cooling degree days 260 299  
Growing Degree Days 19 (Base 50)    
Moisture  
Dew Point 58 °F    
Average Humidity 69    
Maximum Humidity 100    
Minimum Humidity 37    
Precipitation  
Precipitation 0.00 in 0.16 in 1.35 in (1958)
Month to date precipitation 0.66 1.28  
Year to date precipitation 20.06 22.82  
Sea Level Pressure  
Sea Level Pressure 29.94 in    
Wind  
Wind Speed - (North)    
Max Wind Speed -    
Max Gust Speed -    
T = Trace of Precipitation, MM = Missing Value Source: NWS Daily Summary

Daily Weather History Graph

Daily Weather History Graph

Search for Another Location

Airport or City:

Trip Planner

Search our weather history database for the weather conditions in past years. The results will help you decide how hot, cold, wet, or windy it might be!

Date:

Astronomy

Aug. 08, 2012 Rise Set
Actual Time 5:43 AM EDT 8:03 PM EDT
Civil Twilight 5:11 AM EDT 8:35 PM EDT
Nautical Twilight 4:30 AM EDT 9:15 PM EDT
Astronomical Twilight 3:45 AM EDT 9:59 PM EDT
Moon 10:55 PM EDT (8/8) 12:45 PM EDT (8/8)
Length of Visible Light 15h 24m
Length of Day
14h 19m
Waning Gibbous, 61% of the Moon is Illuminated
Aug 8
Waning Gibbous
Aug 9
Last Quarter
Aug 17
New
Aug 24
First Quarter
Aug 31
Full

Hourly Weather History & Observations

Time (EDT) Temp. Heat Index Dew Point Humidity Pressure Visibility Wind Dir Wind Speed Gust Speed Precip Events Conditions
12:54 AM 57.9 °F - 55.0 °F 90% 29.94 in - North - - N/A   Unknown
1:54 AM 57.0 °F - 54.0 °F 89% 29.94 in - North - - N/A   Unknown
2:54 AM 55.9 °F - 54.0 °F 93% 29.94 in - North - - N/A   Unknown
3:54 AM 55.9 °F - 54.0 °F 93% 29.95 in - North - - N/A   Unknown
4:54 AM 54.0 °F - 53.1 °F 97% 29.95 in - North - - N/A   Unknown
5:54 AM 54.0 °F - 52.0 °F 93% 29.97 in - North - - N/A   Unknown
6:54 AM 54.0 °F - 53.1 °F 97% 29.97 in - North - - N/A   Unknown
7:54 AM 57.0 °F - 54.0 °F 89% 29.99 in - North - - N/A   Unknown
8:54 AM 63.0 °F - 55.9 °F 78% 29.99 in - North - - N/A   Unknown
9:54 AM 68.0 °F - 57.0 °F 68% 29.98 in - North - - N/A   Unknown
10:54 AM 75.0 °F - 59.0 °F 57% 29.97 in - North - - N/A   Unknown
11:54 AM 79.0 °F - 59.0 °F 50% 29.96 in - North - - N/A   Unknown
12:54 PM 81.0 °F 81.1 °F 57.9 °F 45% 29.95 in - North - - N/A   Unknown
1:54 PM 82.0 °F 82.0 °F 57.9 °F 44% 29.93 in - North - - N/A   Unknown
2:54 PM 82.0 °F 82.0 °F 57.9 °F 44% 29.92 in - North - - N/A   Unknown
3:54 PM 84.0 °F 83.0 °F 55.9 °F 38% 29.91 in - North - - N/A   Unknown
4:54 PM 82.9 °F 82.6 °F 57.9 °F 42% 29.91 in - North - - N/A   Unknown
5:54 PM 82.0 °F 82.4 °F 60.1 °F 47% 29.91 in - North - - N/A   Unknown
6:54 PM 80.1 °F 81.1 °F 61.0 °F 52% 29.91 in - North - - N/A   Unknown
7:54 PM 73.9 °F - 64.0 °F 71% 29.92 in - North - - N/A   Unknown
8:54 PM 70.0 °F - 63.0 °F 78% 29.93 in - North - - N/A   Unknown
9:54 PM 68.0 °F - 62.1 °F 81% 29.93 in - North - - N/A   Unknown
10:54 PM 66.0 °F - 62.1 °F 87% 29.92 in - North - - N/A   Unknown
11:54 PM 64.0 °F - 62.1 °F 93% 29.92 in - North - - N/A   Unknown